Weather History for KACV - January, 2013

Change the Weather History Date:

Thursday, January 24, 2013

  Actual Average Record
Temperature  
Mean Temperature 48 °F -  
Max Temperature 53 °F 54 °F 70 °F (2006)
Min Temperature 44 °F 39 °F 30 °F (1999)
Degree Days  
Heating Degree Days 16    
Moisture  
Dew Point 48 °F    
Average Humidity 98    
Maximum Humidity 100    
Minimum Humidity 86    
Precipitation  
Precipitation 0.01 in - - ()
Sea Level Pressure  
Sea Level Pressure 30.16 in    
Wind  
Wind Speed 1 mph (NW)    
Max Wind Speed 6 mph    
Max Gust Speed -    
Visibility 2 miles    
Events Fog    
Averages and records for this station are not official NWS values.
T = Trace of Precipitation, MM = Missing Value Source: NWS Daily Summary

Daily Weather History Graph

Daily Weather History Graph

Search for Another Location

Airport or City:

Trip Planner

Search our weather history database for the weather conditions in past years. The results will help you decide how hot, cold, wet, or windy it might be!

Date:

Astronomy

Jan. 24, 2013 Rise Set
Actual Time 7:33 AM PST 5:24 PM PST
Civil Twilight 7:03 AM PST 5:53 PM PST
Nautical Twilight 6:30 AM PST 6:27 PM PST
Astronomical Twilight 5:58 AM PST 6:59 PM PST
Moon 3:31 PM PST (1/24) 5:35 AM PST (1/24)
Length of Visible Light 10h 49m
Length of Day
9h 50m
Waxing Gibbous, 95% of the Moon is Illuminated
Jan 24
Waxing Gibbous
Jan 26
Full
Feb 3
Last Quarter
Feb 9
New
Feb 17
First Quarter

Hourly Weather History & Observations

Time (PST) Temp. Windchill Dew Point Humidity Pressure Visibility Wind Dir Wind Speed Gust Speed Precip Events Conditions
12:00 AM 48.2 °F - 48.2 °F 100% 30.12 in 3.0 mi Calm Calm - N/A   Overcast
12:10 AM 46.4 °F - 46.4 °F 100% 30.12 in 1.5 mi Calm Calm - N/A   Overcast
12:18 AM 46.4 °F 43.5 °F 46.4 °F 100% 30.12 in 0.2 mi NW 5.8 mph - N/A Fog Fog
12:26 AM 48.2 °F - 48.2 °F 100% 30.12 in 0.5 mi NNW 5.8 mph - N/A Fog Fog
12:45 AM 48.2 °F - 48.2 °F 100% 30.12 in 0.5 mi Calm Calm - N/A Fog Fog
12:53 AM 48.0 °F - 48.0 °F 100% 30.14 in 0.5 mi Calm Calm - N/A Fog Fog
1:11 AM 48.2 °F - 48.2 °F 100% 30.12 in 0.2 mi Calm Calm - N/A Fog Fog
1:33 AM 48.2 °F - 48.2 °F 100% 30.12 in 0.8 mi Calm Calm - N/A   Mist
1:53 AM 46.9 °F - 46.9 °F 100% 30.14 in 0.8 mi Calm Calm - N/A   Overcast
2:53 AM 48.0 °F - 46.9 °F 96% 30.14 in 0.5 mi Calm Calm - N/A Fog Fog
3:10 AM 48.2 °F - 48.2 °F 100% 30.12 in 2.0 mi Calm Calm - N/A   Overcast
3:20 AM 48.2 °F - 48.2 °F 100% 30.11 in 4.0 mi Calm Calm - N/A   Overcast
3:28 AM 46.4 °F 45.2 °F 46.4 °F 100% 30.11 in 7.0 mi East 3.5 mph - N/A   Overcast
3:53 AM 46.9 °F - 46.9 °F 100% 30.14 in 6.0 mi West 4.6 mph - N/A   Overcast
4:09 AM 46.4 °F - 46.4 °F 100% 30.11 in 2.5 mi Calm Calm - N/A   Overcast
4:19 AM 46.4 °F - 46.4 °F 100% 30.12 in 1.0 mi Calm Calm - N/A   Overcast
4:23 AM 46.4 °F - 46.4 °F 100% 30.11 in 0.8 mi Calm Calm - N/A   Overcast
4:35 AM 46.4 °F - 46.4 °F 100% 30.11 in 0.5 mi Calm Calm - N/A Fog Fog
4:45 AM 46.4 °F - 46.4 °F 100% 30.11 in 2.0 mi Calm Calm - N/A   Overcast
4:53 AM 46.9 °F - 46.9 °F 100% 30.13 in 3.0 mi Calm Calm - N/A   Overcast
4:58 AM 46.4 °F - 46.4 °F 100% 30.12 in 1.8 mi Calm Calm - N/A   Overcast
5:27 AM 46.4 °F - 46.4 °F 100% 30.12 in 3.0 mi Calm Calm - N/A   Overcast
5:53 AM 46.9 °F - 46.9 °F 100% 30.14 in 6.0 mi Calm Calm - N/A   Overcast
6:35 AM 46.4 °F 45.2 °F 46.4 °F 100% 30.13 in 1.8 mi NW 3.5 mph - N/A   Overcast
6:38 AM 46.4 °F - 46.4 °F 100% 30.13 in 0.8 mi Calm Calm - N/A   Overcast
6:49 AM 46.4 °F - 46.4 °F 100% 30.13 in 0.2 mi Calm Calm - N/A Fog Fog
6:57 AM 46.4 °F - 46.4 °F 100% 30.13 in 0.2 mi Calm Calm - N/A Fog Fog
7:02 AM 46.4 °F - 46.4 °F 100% 30.13 in 0.5 mi Calm Calm - N/A Fog Fog
7:53 AM 45.0 °F - 45.0 °F 100% 30.15 in 0.8 mi Calm Calm - 0.01 in   Overcast
8:00 AM 44.6 °F - 44.6 °F 100% 30.13 in 1.2 mi Calm Calm - N/A   Overcast
8:16 AM 44.6 °F - 44.6 °F 100% 30.14 in 0.5 mi Calm Calm - N/A Fog Fog
8:33 AM 46.4 °F - 46.4 °F 100% 30.15 in 0.2 mi Calm Calm - N/A Fog Fog
8:53 AM 48.0 °F - 46.9 °F 96% 30.17 in 0.2 mi Calm Calm - N/A Fog Fog
9:20 AM 48.2 °F - 48.2 °F 100% 30.16 in 0.2 mi Calm Calm - N/A Fog Fog
9:50 AM 48.2 °F - 48.2 °F 100% 30.17 in 0.8 mi ESE 3.5 mph - N/A   Overcast
9:53 AM 48.9 °F - 48.9 °F 100% 30.19 in 1.2 mi East 3.5 mph - N/A   Overcast
9:58 AM 48.2 °F - 48.2 °F 100% 30.17 in 3.0 mi Calm Calm - N/A   Overcast
10:05 AM 50.0 °F - 48.2 °F 94% 30.17 in 5.0 mi Calm Calm - N/A   Overcast
10:53 AM 51.1 °F - 51.1 °F 100% 30.20 in 10.0 mi South 3.5 mph - N/A   Overcast
11:23 AM 51.8 °F - 51.8 °F 100% 30.19 in 1.8 mi Calm Calm - N/A   Overcast
11:34 AM 51.8 °F - 50.0 °F 94% 30.18 in 0.8 mi Calm Calm - N/A   Overcast
11:42 AM 51.8 °F - 50.0 °F 94% 30.18 in 1.0 mi Calm Calm - N/A   Overcast
11:53 AM 52.0 °F - 51.1 °F 97% 30.20 in 2.0 mi Calm Calm - N/A   Overcast
12:08 PM 51.8 °F - 51.8 °F 100% 30.18 in 1.5 mi Calm Calm - N/A   Overcast
12:53 PM 53.1 °F - 51.1 °F 93% 30.18 in 1.5 mi WNW 3.5 mph - N/A   Overcast
1:27 PM 51.8 °F - 51.8 °F 100% 30.16 in 2.0 mi NW 3.5 mph - N/A   Overcast
1:49 PM 53.6 °F - 51.8 °F 94% 30.15 in 3.0 mi NW 4.6 mph - N/A   Mostly Cloudy
1:53 PM 53.1 °F - 51.1 °F 93% 30.17 in 2.5 mi NW 5.8 mph - N/A   Mostly Cloudy
2:08 PM 51.8 °F - 50.0 °F 94% 30.15 in 2.5 mi NW 4.6 mph - N/A   Mostly Cloudy
2:15 PM 51.8 °F - 50.0 °F 94% 30.15 in 3.0 mi NW 4.6 mph - N/A   Overcast
2:26 PM 51.8 °F - 50.0 °F 94% 30.14 in 2.0 mi Calm Calm - N/A   Overcast
2:36 PM 51.8 °F - 50.0 °F 94% 30.15 in 4.0 mi NW 4.6 mph - N/A   Overcast
2:53 PM 52.0 °F - 50.0 °F 93% 30.17 in 4.0 mi Calm Calm - N/A   Mostly Cloudy
3:10 PM 51.8 °F - 50.0 °F 94% 30.15 in 1.8 mi Calm Calm - N/A   Mostly Cloudy
3:20 PM 53.6 °F - 51.8 °F 94% 30.15 in 3.0 mi Calm Calm - N/A   Mostly Cloudy
3:53 PM 53.1 °F - 48.9 °F 86% 30.17 in 9.0 mi NW 3.5 mph - N/A   Partly Cloudy
4:11 PM 50.0 °F - 48.2 °F 94% 30.16 in 2.0 mi NNW 5.8 mph - N/A   Mostly Cloudy
4:19 PM 48.2 °F - 48.2 °F 100% 30.16 in 1.8 mi NNW 4.6 mph - N/A   Overcast
4:28 PM 50.0 °F - 48.2 °F 94% 30.16 in 3.0 mi Calm Calm - N/A   Overcast
4:53 PM 50.0 °F - 48.0 °F 93% 30.19 in 4.0 mi NNW 3.5 mph - N/A   Overcast
5:53 PM 50.0 °F - 48.0 °F 93% 30.20 in 10.0 mi Calm Calm - N/A   Overcast
6:42 PM 48.2 °F - 46.4 °F 93% 30.20 in 2.0 mi Calm Calm - N/A   Overcast
6:53 PM 48.0 °F - 46.9 °F 96% 30.22 in 2.0 mi Calm Calm - N/A   Mostly Cloudy
7:12 PM 48.2 °F - 48.2 °F 100% 30.20 in 4.0 mi Calm Calm - N/A   Partly Cloudy
7:53 PM 46.9 °F - 46.9 °F 100% 30.21 in 10.0 mi Calm Calm - N/A   Clear
8:53 PM 48.0 °F - 46.9 °F 96% 30.22 in 6.0 mi Calm Calm - N/A   Clear
9:12 PM 46.4 °F 44.3 °F 46.4 °F 100% 30.20 in 2.0 mi NW 4.6 mph - N/A   Scattered Clouds
9:16 PM 46.4 °F 45.2 °F 46.4 °F 100% 30.20 in 0.8 mi NNW 3.5 mph - N/A   Scattered Clouds
9:33 PM 46.4 °F - 46.4 °F 100% 30.21 in 2.5 mi Calm Calm - N/A   Overcast
9:41 PM 46.4 °F - 46.4 °F 100% 30.21 in 5.0 mi Calm Calm - N/A   Mostly Cloudy
9:53 PM 46.9 °F - 46.9 °F 100% 30.23 in 1.5 mi Calm Calm - N/A   Scattered Clouds
10:05 PM 46.4 °F - 46.4 °F 100% 30.21 in 3.0 mi Calm Calm - N/A   Clear
10:13 PM 46.4 °F - 46.4 °F 100% 30.21 in 2.5 mi Calm Calm - N/A   Partly Cloudy
10:21 PM 46.4 °F - 46.4 °F 100% 30.21 in 1.0 mi Calm Calm - N/A   Mist
10:25 PM 46.4 °F - 46.4 °F 100% 30.21 in 0.2 mi Calm Calm - N/A Fog Fog
10:48 PM 44.6 °F - 44.6 °F 100% 30.21 in 0.2 mi Calm Calm - N/A Fog Fog
10:53 PM 45.0 °F 43.5 °F 45.0 °F 100% 30.23 in 0.2 mi SSE 3.5 mph - N/A Fog Fog
11:13 PM 46.4 °F - 46.4 °F 100% 30.21 in 0.2 mi Calm Calm - N/A Fog Fog
11:34 PM 46.4 °F - 46.4 °F 100% 30.20 in 0.2 mi Calm Calm - N/A Fog Fog
11:41 PM 46.4 °F - 46.4 °F 100% 30.21 in 0.2 mi Calm Calm - N/A Fog Fog
11:47 PM 46.4 °F - 46.4 °F 100% 30.21 in 0.5 mi Calm Calm - N/A Fog Fog
11:48 PM 46.0 °F - 46.0 °F 100% 30.23 in 0.5 mi Calm Calm - N/A Fog Fog